sat.trackr.live / text

‹ back to catalog

STARLINK-32137

NORAD 60155 · 2024-120W

PAYLOAD ACTIVE UNKNOWN

§ Identity

Operator
Country
US
Launch date
2024-06-27
Launch site
AFETR
Launch vehicle
Mass (kg)
RCS (m²)

Purposes: comms

External: N2YO · Heavens-Above · Gunter

§ Orbital elements

Epoch: 2026-05-24T21:30:48.819168Z

Period
94.18 min
Inclination
53.1609°
Eccentricity
0.0012308
Mean motion
15.29040950 rev/d
Perigee alt
470.2 km
Apogee alt
487.1 km
Semi-major
6,856.8 km
B*
-5.1438e-3
RAAN
325.9567°
Arg perigee
144.6853°
Mean anomaly
215.4965°
Rev number
10,804

§ Raw data

STARLINK-321371 60155U 24120W   26144.89639837 -.00144923  00000+0 -51438-2 0  99932 60155  53.1609 325.9567 0012308 144.6853 215.4965 15.29040950108045

JSON: /api/v1/satellites/60155 · /tle

For live sub-satellite position, see the globe view (requires WebGL).

§ Visibility from observer

Set your observer location to see the next 7 days of passes ≥ 10°. The values pass through the URL so the page stays shareable.

No JS? Fill the form by hand. The geolocation button needs JavaScript.